Regional Weather Roundup
Issued by NWS

Home | Current Version | Previous Version | Graphics & Text | Print | Product List | Glossary On
Versions: 1 2 3 4 5 6 7 8 9 10 11 12 13 14 15 16 17 18 19 20 21 22 23 24 25 26 27 28 29 30 31 32 33 34 35 36 37 38 39 40 41 42 43 44 45 46 47 48 49 50
000
ASUS45 KCYS 271510
RWRWY

WYOMING REGIONAL WEATHER ROUNDUP
NATIONAL WEATHER SERVICE CHEYENNE WY
900 AM MDT FRI MAY 27 2016

NOTE:  "FAIR" INDICATES FEW OR NO CLOUDS BELOW 12,000 FEET
WITH NO SIGNIFICANT WEATHER AND/OR OBSTRUCTIONS TO VISIBILITY.

WYZ001-271600-
YELLOWSTONE NATIONAL PARK

CITY           SKY/WX    TMP DP  RH WIND       PRES   REMARKS
LK YELLOWSTONE   N/A     38  35  89 CALM      30.07S
W YELLOWSTONE  NOT AVBL

$$
WYZ002>013-054>058-071-098>099-271600-
NORTHERN WYOMING

CITY           SKY/WX    TMP DP  RH WIND       PRES   REMARKS
JACKSON        MOSUNNY   45  39  81 CALM      30.02F
CODY           FAIR      55  37  50 SW17      29.93F
GREYBULL       FAIR      55  43  63 NW3       29.92S
WORLAND        FAIR      53  45  74 SW3       29.92F
SHERIDAN       FAIR      57  45  64 CALM      29.91S
BUFFALO        FAIR      56  40  55 CALM      29.94F
GILLETTE       FAIR      56  45  66 N8        29.90F
HULETT         CLOUDY    54  45  71 SW5       29.91S
NEWCASTLE      FAIR      55  37  50 N13G18    29.90F

$$
WYZ014>020-022>026-101>103-271600-
CENTRAL WYOMING

CITY           SKY/WX    TMP DP  RH WIND       PRES   REMARKS
BIG PINEY      FAIR      48  37  65 CALM      30.05R
PINEDALE       FAIR      46  36  66 CALM      30.05S
DUBOIS         FAIR      52  32  46 N14G20    29.99S
LANDER         FAIR      52  39  61 N5        29.95F
RIVERTON       FAIR      54  40  59 SE6       29.97F
CASPER         FAIR      54  38  54 SW8       29.95S
DOUGLAS          N/A    N/A N/A N/A MISG      29.94S

$$
WYZ021-027>030-104>119-271600-
SOUTHERN WYOMING

CITY           SKY/WX    TMP DP  RH WIND       PRES   REMARKS
EVANSTON       PTSUNNY   44  36  73 S3        30.05S
KEMMERER         N/A     45  36  70 W6        30.05S
FORT BRIDGER   MOSUNNY   52  39  62 W12       30.06S
ROCK SPRINGS   FAIR      48  42  80 W6        30.03R
DIXON          FAIR      47  38  72 W3        30.03S
RAWLINS        FAIR      50  36  58 VRB3      30.00S
SARATOGA       FAIR      46  37  71 NW3       30.02S
LARAMIE        FAIR      46  35  65 NW14      29.98R
CHEYENNE       FAIR      50  37  61 N17G25    29.93R
TORRINGTON     FAIR      56  43  61 NW7       29.88R
PINE BLUFFS    PTSUNNY   50  43  76 N16G23    29.89R

$$



USA.gov is the U.S. government's official web portal to all federal, state and local government web resources and services.